Погода в Гусине

Россия / Смоленская область     54°43′26″N   31°22′03″E
В апреле 2022 года жителям России запретили посещать сайт meteo.paraplan.net по решению Генеральной прокуратуры. Аудитория сайта уменьшилась в 10 раз. Владельцы сайта не видят смысла в поддержке погодного сервера в таких условиях. Сайт будет закрыт в октябре.
темп.,
°C
ветер,
м/с
пор.,
м/с
влажн.,
%
обл.,
%
осадки,
мм/ч
давл.,
гПа
погр.,
м
3 октября, пн
пн300:00+7ссв81594100 9.5 994840
03:00+7с71495100 21.5 991848
06:00+7с71396100 9.2 989711
09:00+7с51096100 15.6 987543
12:00+8в4691100 0.1 988552
15:00+7всв3690100 0.3 988544
18:00+6св3493100 0.3 989602
21:00+5с1193100 0.4 990185
4 октября, вт
вт400:00+6ю1294100 0.1 992152
03:00+5ююз5896100 1.7 994452
06:00+3ююз5897100 3.6 996507
09:00+3ю4897100 4.4 999377
12:00+4ю4697100 1.5 1001516
15:00+6ююз349193 1.8 1003407
18:00+6з2390100 0.3 100481
21:00+6з379696 1.6 1006436
5 октября, ср
ср500:00+5зсз4890100 0.6 1008710
03:00+5зсз5991100 0.9 1010902
06:00+4сз389187 0.2 1013540
09:00+6зсз488966 0.2 1015699
12:00+9зсз4780100 0.1 10161003
15:00+9з5880100 0.2 1017851
18:00+8зюз3891100 0.3 1018369
21:00+8зюз51192100 0.3 1018480
6 октября, чт
чт600:00+9зюз41195100 0.1 1017419
03:00+9зюз41095100 0.1 1017361
06:00+9юз4995100 0.0 1017248
09:00+10юз4109194 0.0 1016344
12:00+14зюз69720 0.0 1016621
15:00+16зюз610680 0.0 1015916
18:00+15з6127765 0.0 1016824
21:00+11з513890 0.0 1019550
7 октября, пт
пт700:00+10з513840 0.0 1021543
03:00+8з512915 0.0 1022492
06:00+8з61187100 0.0 1023702
09:00+10зсз61074100 0.0 1023931
12:00+12з5973100 0.0 10241112
15:00+14з586296 0.0 10241290
18:00+11з367565 0.0 1024135
21:00+9зюз37825 0.0 1024131